sat.trackr.live / text

‹ back to catalog

STARLINK-4157

NORAD 53035 · 2022-076BB

PAYLOAD ACTIVE UNKNOWN

§ Identity

Operator
Country
US
Launch date
2022-07-07
Launch site
AFETR
Launch vehicle
Mass (kg)
RCS (m²)

Purposes: comms

External: N2YO · Heavens-Above · Gunter

§ Orbital elements

Epoch: 2026-09-20T01:19:15.111264Z

Period
93.79 min
Inclination
53.1629°
Eccentricity
0.0000907
Mean motion
15.35403311 rev/d
Perigee alt
459.1 km
Apogee alt
460.3 km
Semi-major
6,837.9 km
B*
6.6763e-5
RAAN
276.9690°
Arg perigee
52.3330°
Mean anomaly
307.7755°
Rev number
23,252

§ Raw data

STARLINK-41571 53035U 22076BB  26263.05503601  .00001949  00000+0  66763-4 0  99962 53035  53.1629 276.9690 0000907  52.3330 307.7755 15.35403311232529

JSON: /api/v1/satellites/53035 · /tle

For live sub-satellite position, see the globe view (requires WebGL).

§ Visibility from observer

Set your observer location to see the next 7 days of passes ≥ 10°. The values pass through the URL so the page stays shareable.

No JS? Fill the form by hand. The geolocation button needs JavaScript.